Location: Barrio de Buenos Aires
(28.4500°N, 16.2667°W)
Time: 03:28:24
(UTC+00:00)

ATLAS 3B R/B - Pass Details

Date: 24 January 2020
Orbit: 1027 x 1168 km, 63.8° (Epoch: 09 February)

Event Time Altitude Azimuth Distance (km) Brightness Sun altitude
Rises 20:10:52 0° 166° (SSE) 3,825 5.6 -20.5°
Reaches altitude 10° 20:14:23 10° 149° (SSE) 2,852 4.7 -21.2°
Enters shadow 20:16:00 15° 136° (SE) 2,522 4.3 -21.6°
